�������l�o���
Date,Time,MP-1(��Sv/h),MP-2(��Sv/h),MP-3(��Sv/h),MP-4(��Sv/h),MP-5(��Sv/h),MP-6(��Sv/h),MP-7(��Sv/h),MP-8(��Sv/h),����,����(m/s),���J
2017/04/15,00:00,1.030,1.653,1.124,1.976,1.362,0.549,1.000,0.925,��쐼,2.0,��
2017/04/15,00:10,1.029,1.656,1.123,1.976,1.362,0.548,1.000,0.925,��쓌,1.2,��
2017/04/15,00:20,1.029,1.654,1.125,1.977,1.361,0.546,1.001,0.925,��,2.2,��
2017/04/15,00:30,1.031,1.655,1.122,1.974,1.361,0.547,0.999,0.927,��,2.3,��
2017/04/15,00:40,1.031,1.656,1.124,1.979,1.360,0.548,0.998,0.926,��,3.0,��
2017/04/15,00:50,1.029,1.655,1.125,1.976,1.362,0.547,1.000,0.926,��,3.7,��
2017/04/15,01:00,1.030,1.655,1.124,1.975,1.360,0.548,1.001,0.925,��,3.5,��
2017/04/15,01:10,1.028,1.653,1.125,1.977,1.360,0.548,0.998,0.926,��,3.2,��
2017/04/15,01:20,1.027,1.655,1.123,1.976,1.359,0.546,0.998,0.927,��,1.2,��
2017/04/15,01:30,1.028,1.655,1.121,1.975,1.361,0.549,0.999,0.927,��쓌,0.6,��
2017/04/15,01:40,1.029,1.655,1.125,1.977,1.360,0.548,1.001,0.925,-,CALM,��
2017/04/15,01:50,1.028,1.649,1.120,1.976,1.363,0.547,0.999,0.925,�k�k��,0.8,��
2017/04/15,02:00,1.028,1.653,1.124,1.976,1.360,0.549,0.999,0.923,�k�k��,1.2,��
2017/04/15,02:10,1.027,1.652,1.124,1.976,1.362,0.546,1.000,0.925,�k��,0.9,��
2017/04/15,02:20,1.025,1.652,1.124,1.976,1.362,0.549,0.998,0.925,�k��,1.4,��
2017/04/15,02:30,1.029,1.652,1.125,1.975,1.363,0.547,0.999,0.925,�k�k��,2.2,��
2017/04/15,02:40,1.027,1.654,1.122,1.975,1.360,0.549,0.998,0.925,�k�k��,1.9,��
2017/04/15,02:50,1.026,1.655,1.121,1.975,1.362,0.548,0.998,0.924,�k�k��,2.3,��
2017/04/15,03:00,1.027,1.653,1.123,1.976,1.362,0.548,0.999,0.924,�k�k��,2.3,��
2017/04/15,03:10,1.026,1.651,1.122,1.976,1.361,0.548,0.999,0.924,���k��,3.7,��
2017/04/15,03:20,1.028,1.652,1.121,1.978,1.361,0.547,0.998,0.925,���k��,5.2,��
2017/04/15,03:30,1.028,1.654,1.125,1.973,1.359,0.548,0.999,0.927,���k��,4.2,��
2017/04/15,03:40,1.028,1.655,1.123,1.976,1.361,0.547,1.000,0.926,���k��,3.6,��
2017/04/15,03:50,1.027,1.652,1.122,1.977,1.361,0.546,0.999,0.924,��,2.3,��
2017/04/15,04:00,1.028,1.655,1.126,1.974,1.359,0.548,1.000,0.924,���쐼,1.9,��
2017/04/15,04:10,1.028,1.654,1.123,1.978,1.361,0.547,0.999,0.925,�쐼,3.0,��
2017/04/15,04:20,1.029,1.653,1.122,1.974,1.360,0.547,1.000,0.925,��쐼,4.3,��
2017/04/15,04:30,1.027,1.656,1.123,1.977,1.364,0.547,0.999,0.926,��쐼,4.0,��
2017/04/15,04:40,1.028,1.653,1.124,1.975,1.362,0.547,1.000,0.926,��쐼,4.4,��
2017/04/15,04:50,1.028,1.652,1.122,1.973,1.361,0.546,0.999,0.925,��,3.4,��
2017/04/15,05:00,1.028,1.652,1.124,1.975,1.359,0.546,0.999,0.923,��,3.6,��
2017/04/15,05:10,1.025,1.653,1.123,1.974,1.363,0.548,0.998,0.925,��쐼,3.7,��
2017/04/15,05:20,1.029,1.651,1.125,1.974,1.361,0.547,0.998,0.926,��,4.1,��
2017/04/15,05:30,1.026,1.652,1.123,1.977,1.360,0.546,0.998,0.926,��쐼,3.4,��
2017/04/15,05:40,1.026,1.655,1.122,1.975,1.360,0.548,0.997,0.923,��쐼,4.3,��
2017/04/15,05:50,1.028,1.654,1.122,1.974,1.361,0.547,0.999,0.926,�쐼,4.6,��
2017/04/15,06:00,1.029,1.652,1.124,1.977,1.360,0.546,1.001,0.927,�쐼,4.4,��
2017/04/15,06:10,1.030,1.655,1.124,1.979,1.363,0.548,1.000,0.926,��쐼,4.2,��
2017/04/15,06:20,1.029,1.654,1.124,1.979,1.361,0.547,1.000,0.925,�쐼,5.6,��
2017/04/15,06:30,1.029,1.657,1.127,1.974,1.364,0.548,0.999,0.926,�쐼,6.3,��
2017/04/15,06:40,1.028,1.658,1.126,1.976,1.362,0.548,1.002,0.926,��쐼,4.5,��
2017/04/15,06:50,1.030,1.657,1.125,1.979,1.361,0.548,1.002,0.927,��쐼,2.3,��
2017/04/15,07:00,1.031,1.659,1.126,1.977,1.361,0.549,1.001,0.926,�쐼,2.3,��
2017/04/15,07:10,1.029,1.656,1.125,1.979,1.363,0.550,1.000,0.925,�쐼,3.3,��
2017/04/15,07:20,1.028,1.658,1.126,1.978,1.364,0.549,0.999,0.926,��쐼,3.7,��
2017/04/15,07:30,1.029,1.658,1.128,1.979,1.365,0.548,1.001,0.928,�쐼,4.4,��
2017/04/15,07:40,1.028,1.657,1.128,1.981,1.363,0.545,1.001,0.928,�쐼,3.8,��
2017/04/15,07:50,1.030,1.656,1.132,1.982,1.365,0.548,1.001,0.928,�쐼,5.1,��
2017/04/15,08:00,1.032,1.654,1.129,1.981,1.362,0.546,1.002,0.928,�쐼,5.0,��
2017/04/15,08:10,1.033,1.653,1.127,1.982,1.364,0.549,1.002,0.928,���쐼,4.6,��
2017/04/15,08:20,1.030,1.656,1.130,1.982,1.366,0.548,1.000,0.928,���쐼,6.1,��
2017/04/15,08:30,1.033,1.657,1.129,1.986,1.364,0.547,1.000,0.929,���쐼,5.2,��
2017/04/15,08:40,1.035,1.654,1.132,1.985,1.367,0.549,1.001,0.928,���쐼,3.3,��
2017/04/15,08:50,1.031,1.656,1.130,1.987,1.365,0.550,1.001,0.927,���쐼,2.6,��
2017/04/15,09:00,1.032,1.657,1.129,1.988,1.364,0.550,1.002,0.926,�쐼,5.7,��
2017/04/15,09:10,1.035,1.659,1.132,1.987,1.363,0.549,1.005,0.924,�쐼,8.0,��
2017/04/15,09:20,1.035,1.659,1.129,1.985,1.365,0.550,1.002,0.924,���쐼,6.3,��
2017/04/15,09:30,1.034,1.657,1.129,1.989,1.367,0.550,1.004,0.925,�쐼,6.9,��
2017/04/15,09:40,1.034,1.660,1.130,1.987,1.365,0.549,1.001,0.924,�쐼,7.0,��
2017/04/15,09:50,1.034,1.662,1.129,1.989,1.363,0.550,1.002,0.925,�쐼,7.2,��
2017/04/15,10:00,1.033,1.660,1.129,1.987,1.368,0.552,1.001,0.927,�쐼,6.2,��
2017/04/15,10:10,1.033,1.659,1.131,1.989,1.365,0.550,1.002,0.925,�쐼,5.6,��
2017/04/15,10:20,1.036,1.658,1.131,1.987,1.370,0.550,1.002,0.926,��쐼,3.9,��
2017/04/15,10:30,1.033,1.662,1.130,1.985,1.369,0.552,1.002,0.925,��,5.4,��
2017/04/15,10:40,1.032,1.661,1.131,1.988,1.370,0.550,1.002,0.926,��,5.2,��
2017/04/15,10:50,1.034,1.659,1.134,1.988,1.367,0.551,1.004,0.925,��,5.6,��
2017/04/15,11:00,1.037,1.664,1.132,1.988,1.367,0.551,1.003,0.928,��,4.8,��
2017/04/15,11:10,1.033,1.663,1.131,1.990,1.369,0.552,1.003,0.926,��쓌,5.4,��
2017/04/15,11:20,1.035,1.660,1.130,1.986,1.369,0.551,1.004,0.928,��쓌,5.2,��
2017/04/15,11:30,1.035,1.663,1.131,1.989,1.369,0.553,1.004,0.924,��,5.2,��
2017/04/15,11:40,1.034,1.662,1.131,1.985,1.369,0.551,1.003,0.926,��,4.6,��
2017/04/15,11:50,1.035,1.662,1.132,1.986,1.369,0.552,1.003,0.927,��,4.4,��
2017/04/15,12:00,1.035,1.664,1.129,1.989,1.369,0.552,1.005,0.926,��,4.6,��
2017/04/15,12:10,1.036,1.664,1.130,1.988,1.373,0.552,1.004,0.926,��쓌,4.5,��
2017/04/15,12:20,1.037,1.663,1.132,1.989,1.368,0.552,1.002,0.926,��쐼,3.4,��
2017/04/15,12:30,1.036,1.663,1.131,1.990,1.372,0.553,1.003,0.928,��,3.1,��
2017/04/15,12:40,1.032,1.663,1.131,1.992,1.372,0.551,1.002,0.926,�k,6.8,��
2017/04/15,12:50,1.033,1.663,1.129,1.990,1.372,0.550,1.002,0.926,�k,7.4,��
2017/04/15,13:00,1.034,1.663,1.129,1.991,1.370,0.550,1.002,0.927,�k,7.2,��
2017/04/15,13:10,1.034,1.667,1.130,1.988,1.371,0.551,1.002,0.927,�k�k��,8.6,�L
2017/04/15,13:20,1.034,1.663,1.127,1.993,1.370,0.548,1.004,0.926,�k�k��,8.7,��
2017/04/15,13:30,1.034,1.666,1.130,1.993,1.373,0.550,1.000,0.927,�k�k��,7.6,��
2017/04/15,13:40,1.035,1.665,1.132,1.989,1.370,0.551,1.002,0.926,�k��,7.0,��
2017/04/15,13:50,1.035,1.663,1.131,1.991,1.371,0.548,1.005,0.925,�k��,7.1,��
2017/04/15,14:00,1.036,1.664,1.131,1.990,1.373,0.550,1.003,0.928,�k�k��,6.2,��
2017/04/15,14:10,1.033,1.665,1.132,1.992,1.374,0.548,1.002,0.926,�k�k��,5.8,�L
2017/04/15,14:20,1.034,1.662,1.133,1.988,1.372,0.549,1.004,0.925,�k�k��,6.3,��
2017/04/15,14:30,1.037,1.666,1.130,1.991,1.373,0.550,1.002,0.926,�k�k��,4.2,��
2017/04/15,14:40,1.035,1.663,1.129,1.993,1.373,0.549,1.000,0.926,�k,2.3,��
2017/04/15,14:50,1.033,1.667,1.133,1.992,1.374,0.548,1.004,0.926,�k�k��,1.7,��
2017/04/15,15:00,1.036,1.666,1.133,1.989,1.372,0.548,1.002,0.926,���k��,2.3,��
2017/04/15,15:10,1.037,1.666,1.131,1.991,1.374,0.549,1.004,0.925,���k��,3.7,��
2017/04/15,15:20,1.036,1.666,1.130,1.990,1.370,0.548,1.003,0.928,��,5.5,��
2017/04/15,15:30,1.033,1.667,1.130,1.993,1.373,0.549,1.005,0.927,���k��,8.0,��
2017/04/15,15:40,1.036,1.666,1.134,1.992,1.375,0.550,1.003,0.929,���k��,8.4,��
2017/04/15,15:50,1.035,1.666,1.133,1.995,1.373,0.550,1.003,0.927,��,7.3,��
2017/04/15,16:00,1.037,1.666,1.135,1.994,1.372,0.549,1.004,0.926,��,6.0,��
2017/04/15,16:10,1.037,1.664,1.134,1.991,1.373,0.548,1.001,0.927,��,6.2,��
2017/04/15,16:20,1.036,1.663,1.131,1.994,1.374,0.549,1.002,0.927,��,8.8,��
2017/04/15,16:30,1.037,1.665,1.133,1.994,1.374,0.550,1.005,0.926,��,7.4,��
2017/04/15,16:40,1.035,1.666,1.131,1.991,1.374,0.551,1.002,0.927,��,8.7,��
2017/04/15,16:50,1.037,1.665,1.133,1.990,1.374,0.550,1.005,0.927,���k��,7.1,��
2017/04/15,17:00,1.037,1.668,1.133,1.991,1.375,0.549,1.004,0.929,��,9.0,��
2017/04/15,17:10,1.037,1.666,1.133,1.996,1.372,0.549,1.005,0.929,��,7.8,��
2017/04/15,17:20,1.036,1.669,1.132,1.990,1.375,0.550,1.004,0.927,���k��,5.6,��
2017/04/15,17:30,1.035,1.668,1.132,1.993,1.375,0.549,1.003,0.929,���쐼,4.5,��
2017/04/15,17:40,1.035,1.670,1.133,1.994,1.372,0.550,1.006,0.927,���쐼,6.5,��
2017/04/15,17:50,1.035,1.671,1.132,1.995,1.372,0.550,1.003,0.928,��,5.5,��
2017/04/15,18:00,1.035,1.668,1.132,1.992,1.371,0.551,1.001,0.927,���쐼,4.7,��
2017/04/15,18:10,1.035,1.671,1.131,1.990,1.375,0.551,1.002,0.927,��,4.8,��
2017/04/15,18:20,1.036,1.670,1.132,1.993,1.372,0.552,1.003,0.928,���쐼,3.0,��
2017/04/15,18:30,1.035,1.669,1.135,1.996,1.374,0.550,1.003,0.931,��,4.8,��
2017/04/15,18:40,1.036,1.670,1.134,1.997,1.373,0.553,1.003,0.930,��,5.5,��
2017/04/15,18:50,1.038,1.671,1.136,1.996,1.374,0.551,1.002,0.930,��,6.2,��
2017/04/15,19:00,1.036,1.669,1.134,1.997,1.375,0.553,1.003,0.931,���쐼,6.9,��
2017/04/15,19:10,1.039,1.668,1.136,1.996,1.376,0.551,1.004,0.930,��,7.2,��
2017/04/15,19:20,1.039,1.671,1.136,1.997,1.376,0.553,1.003,0.930,���쐼,6.5,��
2017/04/15,19:30,1.039,1.666,1.135,1.999,1.376,0.551,1.005,0.930,���쐼,7.3,��
2017/04/15,19:40,1.038,1.668,1.136,1.995,1.375,0.553,1.005,0.929,���쐼,9.3,��
2017/04/15,19:50,1.038,1.666,1.135,1.996,1.373,0.553,1.003,0.930,�쐼,10.7,��
2017/04/15,20:00,1.039,1.670,1.134,1.997,1.377,0.550,1.006,0.931,���쐼,9.3,��
2017/04/15,20:10,1.039,1.669,1.134,1.997,1.375,0.552,1.003,0.931,���쐼,7.4,��
2017/04/15,20:20,1.038,1.670,1.134,1.998,1.373,0.552,1.004,0.931,���쐼,6.0,��
2017/04/15,20:30,1.040,1.669,1.136,1.998,1.378,0.553,1.002,0.930,���쐼,5.7,��
2017/04/15,20:40,1.038,1.670,1.133,1.995,1.376,0.552,1.005,0.928,���쐼,4.3,��
2017/04/15,20:50,1.037,1.668,1.133,1.997,1.375,0.552,1.004,0.930,���쐼,5.4,��
2017/04/15,21:00,1.038,1.667,1.132,1.995,1.375,0.552,1.003,0.930,��,5.4,��
2017/04/15,21:10,1.038,1.671,1.131,1.996,1.379,0.550,1.004,0.929,��,3.6,��
2017/04/15,21:20,1.037,1.670,1.132,1.996,1.375,0.552,1.003,0.929,��,3.8,��
2017/04/15,21:30,1.034,1.670,1.132,1.994,1.374,0.552,1.003,0.929,���쐼,3.0,��
2017/04/15,21:40,1.036,1.665,1.130,1.995,1.375,0.552,1.003,0.929,��,3.8,��
2017/04/15,21:50,1.036,1.664,1.132,1.993,1.378,0.551,1.004,0.928,��,4.0,��
2017/04/15,22:00,1.037,1.667,1.131,1.994,1.374,0.551,1.004,0.929,��,3.3,��
2017/04/15,22:10,1.035,1.668,1.132,1.992,1.370,0.551,1.002,0.929,���k��,3.1,��
2017/04/15,22:20,1.034,1.665,1.133,1.996,1.374,0.550,1.003,0.930,��,3.3,��
2017/04/15,22:30,1.035,1.667,1.131,1.994,1.374,0.550,1.005,0.930,���쐼,3.7,��
2017/04/15,22:40,1.036,1.665,1.133,1.991,1.374,0.553,1.003,0.930,���쐼,5.4,��
2017/04/15,22:50,1.034,1.663,1.132,1.993,1.374,0.551,1.005,0.929,���쐼,5.8,��
2017/04/15,23:00,1.035,1.666,1.134,1.995,1.373,0.551,1.005,0.929,���쐼,4.7,��
2017/04/15,23:10,1.037,1.662,1.133,1.995,1.375,0.551,1.004,0.931,���쐼,4.8,��
2017/04/15,23:20,1.036,1.668,1.131,1.995,1.374,0.553,1.004,0.930,��,3.7,��
2017/04/15,23:30,1.038,1.666,1.133,1.996,1.372,0.550,1.005,0.928,��,2.6,��
2017/04/15,23:40,1.034,1.664,1.132,1.994,1.371,0.551,1.004,0.927,��,1.4,��
2017/04/15,23:50,1.036,1.668,1.132,1.996,1.373,0.550,1.004,0.928,���쓌,2.8,��
